Wind_Speed
18 18 17 17 18 19 20 20 21 19 19 18 19 20 21 21 22 23 23 23 24 24 25 25 25 26 26 27 27 28 27 28 28 28 28 29 29 29 29 29 29 30 30 30
19 20 19 19 19 20 20 21 21 21 20 20 20 21 22 22 23 23 24 25 25 25 26 27 28 28 28 28 29 29 29 29 29 29 29 30 30 30 30 30 30 30 30 30
21 21 21 21 21 21 21 21 21 22 22 22 22 22 23 23 23 24 25 25 25 26 26 27 28 29 29 29 29 29 30 30 30 30 31 31 30 30 30 30 31 31 31 31
23 22 23 21 21 21 22 22 22 22 23 23 23 23 24 24 25 25 25 25 26 26 26 27 28 29 30 30 31 31 31 31 31 32 32 31 30 30 31 31 31 31 31 31
24 24 23 22 22 22 22 22 22 23 23 23 24 24 24 24 24 25 25 25 26 26 26 27 27 28 29 31 31 32 32 32 32 33 33 32 32 32 32 32 32 32 31 31
24 25 24 22 23 24 24 24 23 24 23 23 24 25 25 25 25 26 26 27 27 27 28 28 28 29 29 30 31 32 33 34 34 34 34 34 34 34 33 33 33 33 33 33
23 25 25 23 24 24 24 25 25 24 24 24 24 25 25 25 25 26 26 27 27 28 28 28 28 29 29 30 32 33 34 35 35 35 35 35 36 36 35 35 34 34 34 34
23 24 24 24 25 25 26 26 26 27 26 26 26 26 26 26 26 26 26 27 27 28 29 29 29 29 30 31 32 33 34 35 36 36 37 37 37 37 37 36 35 35 35 35
25 25 24 25 25 26 26 26 27 28 29 29 28 27 27 27 27 27 27 27 28 28 29 30 30 31 31 32 33 34 34 35 36 37 37 38 38 38 38 37 37 36 36 36
27 27 27 27 27 26 26 27 27 29 29 29 30 29 28 28 28 28 28 29 29 29 29 30 31 31 33 33 34 34 34 35 36 37 38 38 38 38 38 38 37 37 37 37
28 28 28 29 29 28 27 27 28 29 30 30 30 29 29 29 29 29 29 29 29 30 30 31 32 32 33 33 33 34 34 35 36 36 36 37 37 38 39 38 38 38 38 37
28 29 30 31 31 31 29 29 29 29 30 30 30 30 30 30 30 30 30 30 31 32 32 32 33 33 33 34 34 35 35 35 36 35 35 36 37 38 38 38 38 38 38 37
28 29 30 31 32 32 32 31 31 31 31 31 31 32 32 32 32 31 30 31 31 32 32 33 34 34 34 34 35 35 35 35 35 35 35 35 36 36 36 36 37 37 37 37
30 30 30 31 32 32 32 32 31 32 32 33 33 33 34 34 33 33 33 33 33 33 34 34 35 35 35 35 35 35 35 35 35 35 35 35 35 35 35 35 35 35 36 36
31 32 32 32 33 33 33 32 32 32 32 33 33 34 34 34 33 34 34 34 35 35 35 35 35 36 36 36 35 35 36 35 35 35 35 35 34 34 34 34 34 34 35 35
32 32 32 33 33 34 34 34 33 33 33 33 33 33 33 33 33 33 34 34 34 35 35 35 35 35 35 35 35 35 35 35 35 35 34 33 33 33 32 32 33 33 33 32
31 31 32 32 33 33 33 33 33 34 34 33 33 32 32 32 32 32 33 33 34 34 35 35 34 34 34 34 34 33 33 33 33 33 33 32 32 32 32 32 31 31 31 30
31 32 32 31 32 33 33 33 33 33 32 32 33 32 32 32 31 31 32 32 32 33 33 34 33 33 33 33 32 32 32 32 32 32 32 32 32 31 31 30 30 29 29 28
30 31 31 30 30 31 32 31 31 31 31 31 31 31 31 31 31 31 31 31 31 32 32 33 32 32 32 32 31 31 31 31 31 31 31 31 31 31 30 29 29 28 28 27
29 30 31 30 29 30 31 31 30 30 30 30 30 30 30 31 31 31 31 31 31 31 31 31 30 30 30 31 31 30 30 31 31 31 31 30 30 30 29 28 28 28 27 27
28 28 29 29 28 28 29 29 30 30 30 30 30 30 30 31 31 31 31 31 30 30 30 30 29 28 28 29 29 29 30 30 30 29 29 29 28 28 27 27 27 27 26 25
27 27 27 28 28 28 28 28 28 29 30 30 30 30 30 30 30 30 30 30 29 29 28 28 28 28 28 28 29 29 29 29 29 28 27 27 27 26 26 26 25 25 25 24
27 27 27 28 28 27 28 27 28 29 29 29 29 29 29 29 29 28 28 28 28 28 28 27 27 27 28 28 28 28 28 28 27 27 26 26 25 25 24 24 24 24 24 23
27 27 27 27 27 27 27 27 27 27 27 27 28 28 28 28 27 26 26 26 26 26 26 26 26 27 27 27 27 27 27 27 27 26 25 24 24 23 23 23 23 23 23 22
26 26 26 26 25 26 26 26 26 25 26 26 27 27 27 27 26 25 25 25 25 25 25 25 25 26 26 26 26 26 26 26 26 25 24 24 23 23 22 21 21 21 20 20
24 24 24 25 25 24 24 24 24 24 25 25 25 25 25 25 25 25 25 24 24 24 24 24 25 25 25 25 25 25 25 24 24 24 23 22 22 22 21 20 20 19 19 19
23 23 23 23 23 24 24 24 23 23 24 24 24 24 24 24 24 24 24 24 23 23 22 22 22 23 23 24 24 24 23 23 22 22 22 21 21 20 20 20 20 19 19 18
Wind_Direction
263 262 263 265 264 261 261 265 270 270 271 273 275 275 277 279 280 282 282 279 277 276 276 274 274 274 275 276 278 278 280 282 283 284 286 288 289 290 291 290 289 288 286 287
263 261 262 266 263 262 262 266 271 272 271 272 273 274 275 277 280 283 284 282 279 279 278 277 276 276 276 277 278 279 280 281 282 285 287 288 289 289 290 289 288 287 286 286
264 263 263 264 262 261 262 266 271 273 272 273 273 274 275 276 278 280 282 280 279 278 278 279 277 276 276 277 278 278 279 280 282 284 286 287 288 289 289 289 289 289 287 286
264 262 262 266 264 263 265 267 270 273 275 274 274 275 276 278 279 280 281 280 279 279 280 281 279 278 277 277 278 277 278 280 282 284 285 287 287 288 287 287 288 287 287 287
266 263 265 265 265 267 268 269 272 274 275 275 275 276 278 280 282 281 280 279 279 279 280 280 280 279 277 277 278 279 280 281 282 282 284 286 286 287 286 286 286 285 285 286
264 264 266 269 266 266 269 270 272 273 275 276 276 276 278 279 280 281 281 281 280 280 281 281 281 280 278 279 280 280 280 280 281 282 282 284 285 285 286 286 284 283 284 285
262 263 265 268 266 268 268 271 271 274 276 278 278 279 279 279 279 280 281 281 281 281 281 281 282 281 280 280 281 282 281 281 281 281 282 283 284 285 285 285 283 283 284 285
263 263 265 268 269 269 270 271 270 271 274 278 279 279 279 280 280 280 280 280 280 280 281 281 282 282 283 283 284 284 284 283 282 281 281 281 282 284 285 284 283 283 284 285
265 266 266 266 269 273 273 272 272 271 274 277 279 280 280 281 280 279 280 280 281 280 281 282 282 284 285 285 286 286 285 284 283 283 283 281 282 282 284 283 282 283 284 285
267 267 266 265 267 270 271 273 275 274 275 278 279 280 281 281 281 281 282 281 282 282 283 283 284 284 285 285 286 287 287 287 286 286 284 283 283 283 283 283 283 283 283 284
266 267 268 268 269 270 273 274 275 276 278 278 279 279 281 281 280 281 281 281 281 282 283 285 286 287 287 286 287 288 288 288 289 289 288 286 284 284 285 284 284 284 284 285
267 268 268 269 270 271 272 274 276 277 278 278 279 280 281 281 281 280 279 280 281 283 284 284 285 286 287 288 288 289 289 290 290 290 289 288 287 286 285 285 285 285 285 285
269 269 270 269 270 271 271 273 274 276 278 278 279 280 281 281 281 280 279 280 282 283 284 285 286 287 288 290 290 290 290 290 290 291 291 290 289 287 286 285 286 286 285 285
267 269 270 270 269 270 272 273 274 276 277 278 279 280 281 281 280 280 281 282 283 284 285 286 287 288 288 290 290 290 290 291 291 291 291 292 291 290 288 286 285 285 285 285
266 267 269 269 270 270 271 272 273 275 276 277 279 280 280 280 280 279 280 282 283 284 285 286 287 287 287 288 289 290 291 292 292 292 292 292 292 291 290 288 287 286 286 286
268 268 269 269 269 270 271 273 274 275 278 280 280 280 281 281 280 280 281 282 283 284 286 287 288 287 286 286 288 289 290 291 291 291 291 292 291 291 291 290 290 288 286 285
269 268 269 270 270 270 272 273 274 276 278 280 281 282 282 281 281 281 281 282 283 284 286 287 287 285 285 285 286 287 289 290 291 292 292 291 291 291 291 290 291 291 288 286
272 271 271 273 273 272 272 273 274 276 278 280 281 281 282 282 282 283 283 283 283 285 286 286 285 284 285 285 286 287 288 290 292 292 291 291 292 292 292 292 292 291 290 288
273 274 274 275 275 275 274 274 276 277 277 279 280 282 282 282 282 284 284 284 284 285 285 285 284 284 284 285 286 287 289 291 292 292 291 291 292 293 292 290 290 291 290 288
275 276 276 275 275 276 275 274 276 277 277 278 280 281 282 282 283 284 284 284 284 283 283 283 283 284 285 285 286 287 289 291 292 292 291 291 292 292 293 292 292 291 290 289
276 276 276 275 276 276 275 275 275 277 278 279 281 282 282 282 283 283 284 284 284 283 283 282 283 284 285 286 287 288 289 291 292 293 293 292 292 292 292 293 294 294 293 290
276 276 276 276 276 276 275 276 278 279 279 280 281 282 282 283 283 283 284 284 284 284 283 282 282 284 285 287 288 289 289 290 293 295 295 294 294 293 293 293 294 296 296 292
275 276 277 277 277 277 276 278 279 280 279 280 282 283 283 284 284 284 284 284 284 285 283 282 282 283 285 287 288 289 290 290 292 294 295 294 294 293 294 294 295 297 297 295
276 277 277 277 277 277 278 279 280 280 281 282 283 284 284 284 285 285 285 285 285 285 284 282 281 283 285 287 289 289 288 289 290 292 294 294 293 293 293 293 295 296 296 294
276 277 277 276 276 277 278 279 280 281 281 282 284 285 285 284 283 285 285 285 285 285 285 285 284 284 286 287 288 289 289 288 289 290 291 291 292 293 293 294 295 296 295 294
274 275 275 276 276 278 279 280 282 281 281 281 282 284 285 285 284 284 285 285 285 286 286 287 287 287 286 286 286 287 288 288 289 289 289 290 291 293 294 294 293 294 295 294
273 274 274 275 277 279 280 281 282 281 281 282 283 284 285 285 286 286 287 287 287 288 287 287 288 288 288 288 288 288 288 288 288 288 288 289 291 293 292 292 292 292 294 294
Height
5784 5784 5785 5785 5785 5785 5785 5785 5785 5786 5785 5786 5784 5783 5783 5782 5781 5780 5779 5779 5778 5778 5777 5777 5776 5776 5775 5775 5774 5773 5772 5771 5770 5768 5766 5764 5762 5759 5757 5754 5751 5749 5746 5744
5778 5779 5779 5779 5779 5779 5779 5779 5779 5779 5780 5779 5778 5777 5777 5776 5775 5774 5773 5772 5771 5770 5770 5769 5768 5768 5767 5766 5765 5765 5764 5763 5761 5759 5757 5755 5753 5751 5748 5746 5743 5740 5738 5735
5773 5773 5773 5773 5774 5773 5773 5773 5773 5772 5774 5773 5772 5771 5770 5769 5768 5767 5766 5765 5764 5763 5762 5761 5760 5759 5759 5758 5757 5756 5756 5754 5753 5751 5749 5746 5744 5742 5739 5737 5734 5731 5729 5727
5766 5767 5766 5770 5768 5768 5767 5767 5767 5766 5766 5766 5765 5764 5763 5762 5761 5760 5759 5757 5756 5756 5754 5753 5752 5751 5750 5749 5748 5748 5747 5745 5744 5742 5740 5738 5735 5733 5731 5728 5725 5723 5721 5718
5759 5758 5759 5762 5762 5761 5761 5761 5761 5760 5759 5759 5758 5757 5756 5755 5754 5752 5751 5750 5749 5748 5746 5745 5744 5742 5741 5740 5739 5738 5737 5736 5734 5733 5731 5729 5726 5724 5721 5719 5716 5714 5711 5709
5751 5751 5752 5756 5755 5754 5755 5754 5754 5753 5752 5752 5751 5751 5750 5748 5747 5745 5743 5742 5740 5739 5738 5737 5736 5734 5733 5732 5730 5729 5728 5726 5725 5723 5721 5719 5717 5714 5712 5709 5707 5704 5702 5700
5744 5744 5745 5748 5747 5747 5748 5748 5747 5746 5745 5745 5744 5743 5742 5740 5739 5737 5736 5734 5732 5731 5730 5728 5727 5726 5724 5723 5721 5720 5718 5716 5714 5712 5711 5709 5706 5704 5701 5699 5696 5694 5692 5690
5737 5738 5741 5740 5740 5740 5740 5739 5738 5738 5738 5737 5736 5734 5733 5732 5731 5730 5728 5726 5724 5723 5721 5720 5719 5717 5716 5714 5712 5710 5708 5706 5704 5702 5700 5698 5696 5693 5690 5688 5686 5684 5682 5679
5732 5733 5732 5732 5732 5731 5731 5731 5730 5730 5730 5729 5728 5726 5725 5724 5723 5721 5720 5718 5716 5715 5713 5711 5710 5708 5706 5705 5703 5700 5698 5695 5693 5691 5689 5687 5684 5682 5680 5677 5675 5673 5671 5669
5723 5724 5724 5724 5724 5724 5723 5723 5722 5722 5721 5720 5719 5718 5717 5716 5714 5713 5712 5710 5708 5706 5705 5703 5701 5699 5697 5695 5693 5691 5688 5685 5682 5680 5678 5675 5673 5671 5669 5666 5664 5662 5660 5658
5716 5716 5716 5715 5715 5716 5715 5715 5714 5714 5713 5712 5710 5709 5708 5707 5706 5704 5703 5701 5700 5698 5696 5694 5692 5689 5687 5685 5683 5680 5678 5675 5672 5669 5667 5664 5662 5659 5657 5655 5652 5650 5648 5646
5708 5708 5708 5707 5707 5707 5706 5706 5706 5705 5704 5703 5702 5701 5699 5698 5697 5695 5694 5692 5691 5689 5687 5685 5683 5680 5678 5676 5673 5670 5668 5665 5662 5659 5656 5654 5651 5648 5645 5643 5641 5638 5636 5635
5699 5699 5698 5698 5698 5698 5698 5697 5697 5696 5695 5694 5693 5691 5690 5689 5687 5686 5684 5683 5682 5680 5678 5675 5673 5671 5668 5666 5663 5660 5657 5654 5652 5649 5646 5643 5640 5638 5635 5633 5630 5628 5625 5623
5689 5689 5689 5689 5689 5689 5688 5688 5687 5687 5686 5685 5683 5682 5681 5679 5678 5676 5675 5673 5672 5670 5668 5666 5664 5661 5659 5656 5653 5650 5647 5644 5641 5639 5636 5633 5630 5627 5624 5622 5620 5617 5614 5612
5680 5680 5680 5679 5680 5679 5679 5678 5678 5677 5676 5675 5674 5672 5671 5669 5667 5666 5665 5663 5661 5660 5658 5656 5654 5651 5648 5646 5643 5640 5637 5634 5631 5628 5625 5622 5619 5616 5614 5611 5609 5607 5604 5601
5670 5669 5669 5670 5670 5670 5669 5668 5668 5667 5666 5665 5664 5662 5660 5659 5657 5656 5654 5653 5651 5649 5647 5645 5643 5640 5638 5635 5633 5630 5627 5624 5621 5618 5615 5612 5609 5607 5604 5601 5598 5596 5593 5591
5659 5659 5659 5659 5659 5659 5659 5658 5658 5657 5656 5655 5654 5652 5650 5648 5647 5646 5644 5642 5640 5639 5636 5634 5632 5629 5627 5625 5623 5620 5617 5614 5611 5608 5606 5603 5600 5597 5594 5591 5589 5586 5583 5581
5650 5649 5649 5649 5649 5649 5648 5648 5647 5646 5645 5645 5643 5642 5640 5639 5637 5635 5633 5632 5630 5628 5626 5623 5621 5619 5617 5615 5612 5610 5607 5604 5602 5599 5596 5593 5590 5587 5584 5582 5579 5577 5574 5572
5640 5640 5640 5639 5639 5638 5638 5637 5637 5636 5635 5634 5633 5632 5630 5629 5627 5625 5623 5621 5619 5618 5616 5613 5611 5609 5607 5605 5602 5600 5598 5595 5592 5589 5587 5584 5581 5578 5576 5573 5571 5568 5566 5564
5631 5630 5630 5629 5629 5628 5628 5627 5627 5626 5625 5624 5623 5622 5620 5619 5617 5615 5613 5611 5609 5607 5605 5603 5601 5600 5597 5595 5593 5591 5588 5586 5583 5580 5577 5575 5572 5570 5567 5564 5562 5560 5557 5555
5621 5621 5620 5620 5619 5618 5618 5617 5617 5616 5615 5614 5613 5612 5610 5609 5607 5605 5603 5601 5599 5597 5595 5593 5592 5590 5588 5586 5584 5581 5579 5577 5574 5571 5568 5566 5563 5561 5558 5556 5554 5551 5549 5547
5612 5611 5611 5610 5609 5609 5608 5607 5607 5606 5605 5604 5603 5602 5600 5598 5597 5595 5593 5591 5589 5587 5585 5584 5582 5580 5578 5576 5574 5572 5570 5568 5565 5562 5560 5557 5555 5553 5551 5548 5546 5543 5541 5539
5602 5602 5601 5601 5600 5599 5599 5598 5597 5597 5596 5595 5594 5592 5591 5589 5587 5586 5584 5582 5580 5578 5576 5575 5573 5571 5569 5567 5565 5563 5561 5559 5557 5554 5552 5550 5547 5545 5543 5541 5539 5537 5534 5532
5593 5592 5592 5591 5590 5590 5590 5589 5588 5587 5586 5585 5584 5583 5581 5580 5578 5576 5574 5572 5571 5569 5567 5565 5564 5562 5560 5558 5557 5555 5553 5551 5549 5547 5544 5542 5540 5538 5536 5534 5532 5530 5527 5525
5584 5583 5583 5583 5582 5582 5581 5580 5579 5578 5577 5576 5575 5573 5572 5570 5569 5568 5566 5564 5562 5560 5559 5557 5555 5553 5552 5550 5548 5546 5544 5542 5541 5539 5537 5535 5533 5531 5529 5527 5525 5523 5521 5519
5575 5575 5575 5574 5574 5573 5573 5572 5571 5570 5569 5568 5566 5565 5563 5562 5561 5559 5558 5556 5554 5552 5550 5549 5547 5545 5543 5541 5540 5538 5536 5535 5533 5531 5530 5528 5526 5524 5523 5521 5519 5517 5515 5513
5568 5567 5567 5566 5566 5565 5564 5563 5562 5562 5560 5559 5558 5557 5555 5554 5553 5551 5550 5548 5546 5545 5543 5541 5539 5537 5536 5534 5532 5530 5529 5527 5525 5524 5522 5521 5519 5518 5516 5514 5513 5511 5509 5508